COSMOS 2251 DEB, 34014

Orbit data source: Space-Track

COSMOS 2251 DEB, 34014 is space debris in LEO originally from a launch on Wed, 16 Jun 1993 UTC launched from the Plesetsk Missile And Space Complex (PKMTR). The debris from Iridium 33, an American commercial communications satellite, has been tracked extensively since its accidental collision with the defunct Russian satellite Cosmos 2251 in 2009. This event, occurring at high speed in low Earth orbit (LEO), generated thousands of pieces of space debris, significantly increasing the risk of further collisions. The Iridium 33 debris cloud has impacted space traffic management and orbital debris mitigation strategies, making it a subject of ongoing study in space situational awareness.

Loading next visibility...
Identifier
34014, 1993-036GZ
Orbit
LEO
Country
Flag of CISCIS
Related business
Manufacturer
Unknown
Mission
Spacecraft
Bus & Motor
Unknown
Mass
Unknown
Launch date (UTC)
1993-06-16 (33 years ago)
Launch vehicle
Unknown
Launch site
Plesetsk Missile And Space Complex (PKMTR)
Object type
Payload
Rocket body
Debris
Shape & HBR
Unknown shape, 0.1 m
Radar Cross Section
Medium (>0.1 m² and <1 m²)

Expand to show TLE details & history
Last TLE update: 1 day ago

TLE from 1 day ago
0 COSMOS 2251 DEB
1 34014U 93036GZ  26167.85687350  .00003315  00000-0  48833-3 0  9998
2 34014  74.0169 276.9460 0038803   9.9701 130.1708 14.75287604920468
Epoch: 2026-06-16T20:33Z
TLE epoch observation values (Epoch: 2026-06-16T20:33:53.870Z)
Latitude
37.8033°
Longitude
-129.41928°
Altitude
666.798 km
Speed
7.518 km/s
True Right ascension
05h 36m 42s
True Declination
37° 38' 05"
Sunlit
Object was in daylight at epoch
Visualization orbit readout
Latitude
Unknown
Longitude
Unknown
Altitude
Unknown
Speed
Unknown
Apparent Right ascension
Unknown
Apparent Declination
Unknown
Sunlit
N/A
Visualization observer readout
Local Sidereal Time
19:04:47
Azimuth
Unknown
Elevation
Unknown
Doppler factor
Unknown
Orbital elements
Apogee altitude
669.06 km
Perigee altitude
614.581 km
Semi-major axis
7,019.958 km
Eccentricity
0.00388
Inclination
74.0169°
RAAN
276.946°
Arg. of periapsis
9.9701°
True anomaly
130.50951°
Mean anomaly
130.1708°
Eccentric anomaly
130.34026°
Mean motion
3.69013 °/min
Orbital period
97.56 mins
BSTAR
0.00048833
Loading maneuver chart data...
Computing Atmospheric mass density...

Documentation

Showing up to 5 results
|